SCP
0 0 0 0 0 0 0 0 0 0 0 0 0 0 0 0 0 0 0 0 0 0 0 0 0 0 0 0 0 0 0 0 0 0 0 0 0 0 0 0 0 0 0 1
0 0 0 0 0 0 0 0 0 0 0 0 0 0 0 0 0 0 0 0 0 0 0 0 0 -0 -0 -0 -0 0 0 0 0 0 0 0 0 0 0 0 0 0 0 1
0 0 0 0 0 0 0 0 0 0 0 0 0 0 0 0 0 0 0 0 0 0 0 0 -0 -0 -0 -0 -0 0 0 0 0 0 0 0 0 0 0 0 0 0 0 0
0 0 0 0 0 0 0 0 0 0 0 0 0 0 0 0 0 0 0 0 0 0 0 0 0 0 0 0 0 -0 -0 -0 -0 0 -0 0 -0 -0 0 0 0 0 0 0
0 0 0 0 0 0 0 0 0 0 0 0 0 0 0 0 0 0 0 0 0 0 0 0 0 0 -0 -0 -0 0 0 -0 -0 -0 -0 -0 -0 -0 0 0 0 0 -0 0
0 0 0 0 0 0 0 0 0 0 0 0 0 0 0 0 0 0 0 0 0 0 0 0 0 0 0 0 0 0 0 0 0 -0 0 -0 0 0 0 0 0 0 0 -0
0 0 0 0 0 0 0 0 0 0 0 0 0 0 0 0 0 0 0 0 0 0 0 0 0 0 0 0 0 -0 -0 0 0 0 0 0 0 0 0 0 0 0 0 0
0 0 0 0 0 0 0 0 0 0 0 0 0 0 0 0 0 0 0 0 0 0 -0 -0 -0 0 0 0 0 -0 -0 -0 0 0 0 -0 -0 0 0 0 0 0 0 0
0 0 0 0 0 0 0 0 0 0 0 0 0 0 0 0 0 0 0 0 -0 -0 0 0 0 0 0 0 0 -0 -0 0 0 0 0 -0 0 0 0 0 0 0 0 0
0 0 0 0 0 0 0 0 0 0 0 0 0 0 0 0 0 0 0 0 0 0 0 0 0 0 0 -0 -0 -0 -0 0 0 0 0 0 0 0 0 0 0 0 0 0
0 0 0 0 0 0 0 0 0 0 0 0 0 0 0 0 0 0 0 0 0 0 0 0 0 0 0 -0 -0 -0 0 0 0 0 0 -0 -0 -0 0 0 0 0 0 0
0 0 0 0 0 0 0 0 0 0 0 0 0 0 0 0 0 0 0 0 0 0 0 0 0 0 0 0 0 -0 0 -0 -0 0 0 -0 0 0 0 0 0 0 0 0
0 0 0 0 0 0 0 0 0 0 0 0 0 0 0 0 0 0 0 0 0 0 0 0 0 0 0 0 0 0 -0 -0 -0 -0 0 0 0 0 0 0 0 0 0 0
0 0 0 0 0 0 0 0 0 0 0 0 0 0 0 0 0 0 0 0 0 0 0 0 0 0 0 0 0 -0 -0 -0 -0 -0 0 0 -0 0 0 0 0 0 0 0
0 0 0 0 0 0 0 0 0 0 0 0 0 0 0 0 0 0 0 0 0 0 0 0 0 0 0 0 0 -0 -0 -0 -0 -0 0 0 0 -0 0 0 0 0 0 0
0 0 0 0 0 0 0 0 0 0 0 0 0 0 0 0 0 0 0 0 0 0 0 0 0 0 0 0 0 -0 -0 -0 0 -0 -0 0 0 -0 0 0 0 0 0 0
0 0 0 0 0 0 0 0 0 0 0 0 0 0 0 0 0 0 0 0 0 0 0 0 0 0 0 0 -0 -0 -0 0 0 -0 -0 -0 -0 -0 0 0 -0 0 0 0
0 0 0 0 0 0 0 0 0 0 0 0 0 0 0 0 0 0 0 0 0 0 0 0 0 0 0 0 -0 -0 -0 0 -0 -0 -0 -0 -0 -0 -0 0 0 -0 -0 -0
0 0 0 0 0 0 0 0 0 0 0 0 0 0 0 0 0 0 0 0 0 0 0 0 0 0 0 0 0 -0 -0 0 -0 -0 0 0 0 -0 -0 -0 -0 0 0 0
0 0 0 0 0 0 0 0 0 0 0 0 0 0 0 0 0 0 0 0 0 0 0 0 0 0 0 0 0 0 0 -0 -0 -0 0 0 0 0 -0 -0 -0 -0 0 0
0 0 0 0 0 0 0 0 0 0 0 0 0 0 0 0 0 0 0 0 0 0 0 0 0 0 0 0 0 0 0 -0 -0 -0 0 0 0 0 0 0 -0 -0 0 0
0 0 0 0 0 0 0 0 0 0 0 0 0 0 0 0 0 0 0 0 0 0 0 0 0 0 0 0 0 0 0 -0 -0 -0 0 0 0 0 0 0 0 0 0 0
0 0 0 0 0 0 0 0 0 0 0 0 0 0 0 0 0 0 0 0 0 0 0 0 0 0 0 0 0 0 0 -0 -0 -0 -0 0 0 0 0 0 0 0 0 0
0 0 0 0 0 0 0 0 0 0 0 0 0 0 0 0 0 0 0 0 0 0 0 0 0 0 0 0 0 0 0 0 0 0 0 0 0 0 0 0 0 0 0 0
0 0 0 0 0 0 0 0 0 0 0 0 0 0 0 0 0 0 0 0 0 0 0 0 0 0 0 0 0 0 0 0 0 0 0 0 0 0 0 0 0 0 -0 -0
0 0 0 0 0 0 0 0 0 0 0 0 0 0 0 0 0 0 0 0 0 0 0 0 0 0 0 0 0 0 0 0 0 0 0 0 0 0 0 0 0 0 0 0
Wind_Speed_500mb
20 3 11 22 16 7 3 6 13 12 11 11 12 10 11 19 45 47 52 54 50 53 48 53 55 53 48 49 56 62 61 62 64 61 62 61 55 40 33 22 45 89 69 83
7 22 21 11 3 2 9 11 11 11 9 12 15 14 16 5 26 48 51 52 45 45 48 51 56 55 56 60 64 64 64 66 69 67 65 63 62 61 54 50 40 55 80 89
15 15 12 3 7 9 6 8 7 7 12 7 11 12 16 21 55 54 53 46 45 41 40 44 46 50 49 58 68 68 68 65 66 70 72 68 62 55 57 63 69 55 51 65
15 22 14 8 9 9 10 10 12 13 12 5 11 10 5 34 28 35 40 43 37 33 34 41 43 46 53 59 62 68 68 67 65 66 71 72 73 75 66 67 71 78 72 63
10 5 12 7 9 2 3 10 7 6 10 11 7 8 12 32 19 22 31 35 29 30 32 30 29 35 43 53 60 67 74 81 75 67 65 68 71 74 72 67 74 80 89 88
14 8 4 5 10 10 7 5 6 9 5 7 23 19 1 18 32 18 30 30 29 25 21 22 30 41 50 60 59 73 73 73 72 77 72 65 66 70 76 72 73 76 79 93
12 8 10 14 3 6 5 8 6 6 3 12 11 14 12 24 25 28 28 30 20 19 17 24 28 45 56 64 64 80 82 75 70 68 69 70 63 64 67 63 62 63 75 79
13 7 19 12 13 6 12 12 9 7 4 8 16 5 9 23 37 33 28 16 18 15 19 24 32 42 54 64 70 78 79 75 68 64 67 66 62 60 63 63 56 54 51 61
6 14 14 14 8 11 2 5 2 2 8 2 7 9 12 21 19 27 24 17 16 23 30 34 36 42 49 54 68 73 73 70 66 63 63 63 60 59 59 59 56 49 47 51
4 6 6 7 15 8 7 4 8 4 3 7 9 7 10 17 15 20 19 21 24 28 30 28 33 38 42 58 68 68 70 71 70 64 61 60 60 60 58 55 53 51 44 50
9 7 6 12 7 12 3 3 4 3 7 6 3 3 11 17 14 13 18 17 18 21 27 26 30 37 51 61 67 69 70 75 68 64 62 59 57 62 56 55 49 46 40 42
5 8 8 17 16 15 13 11 14 8 9 3 6 7 6 14 20 25 17 17 18 25 32 33 38 48 57 60 59 64 66 75 65 64 64 61 56 57 59 54 47 44 38 37
13 4 5 6 9 2 7 8 8 10 7 8 6 5 8 14 23 22 14 20 25 27 31 37 42 47 49 51 55 55 61 66 64 71 68 65 59 55 63 54 50 45 42 36
15 5 10 14 8 8 7 13 13 14 7 8 11 15 13 8 13 15 15 21 20 23 26 29 34 36 42 49 54 56 66 60 59 68 68 64 62 54 57 59 57 49 42 35
9 6 3 10 14 13 11 14 22 20 16 14 16 20 15 11 14 23 20 15 14 20 26 31 35 40 46 52 49 60 63 55 54 68 67 56 64 62 52 54 54 57 47 41
4 5 5 6 12 19 22 16 12 14 21 16 13 7 12 22 23 21 13 15 21 25 28 33 35 40 47 48 49 58 62 51 55 69 66 56 59 62 63 64 52 53 48 49
12 9 8 7 10 14 15 14 17 11 10 8 8 10 16 13 14 13 16 16 21 24 27 30 34 40 45 44 46 55 59 48 57 71 65 59 57 57 55 56 53 54 51 46
10 11 3 4 6 14 11 12 9 2 10 12 10 16 21 18 25 26 21 14 16 23 25 29 33 40 42 40 47 49 53 45 60 70 63 58 56 54 52 56 48 49 50 48
10 9 2 6 7 11 5 8 7 7 5 10 12 17 27 24 22 28 19 17 22 19 26 28 34 34 37 43 44 49 49 50 63 69 60 56 53 55 53 54 48 49 49 44
19 7 8 2 6 8 5 13 32 16 3 18 31 22 22 15 5 2 17 20 20 18 26 27 26 31 36 38 42 49 46 56 64 67 58 49 52 52 53 51 50 50 53 51
6 0 11 3 5 10 11 19 20 8 10 24 31 26 22 8 3 10 10 16 21 21 18 23 29 32 33 38 43 43 46 55 61 60 51 44 47 47 48 49 48 46 49 55
12 11 6 3 2 10 36 17 8 14 26 22 20 17 14 6 10 9 15 17 20 21 23 28 32 29 32 38 43 41 48 55 59 50 48 43 46 46 47 47 46 45 51 60
0 12 10 11 9 11 31 41 33 21 30 22 16 9 6 8 16 15 13 18 17 21 28 33 34 30 29 35 37 42 49 54 50 48 45 45 48 48 48 51 50 50 52 61
5 11 7 7 3 24 39 33 29 26 25 21 15 11 10 11 11 11 14 14 21 28 31 33 33 32 31 34 36 38 44 48 46 52 45 47 53 54 45 50 49 50 52 56
11 15 11 3 4 30 32 32 27 23 21 18 10 3 6 8 9 11 10 17 25 30 31 32 34 32 32 37 35 37 46 45 49 47 43 47 52 54 49 51 47 46 42 42
15 11 7 8 24 17 29 37 24 22 17 12 12 20 13 5 3 8 14 21 28 28 30 32 31 29 37 38 37 41 42 42 47 43 42 48 50 46 47 53 51 39 37 36
Wind_Direction_500mb
229 177 231 227 204 190 325 309 319 305 292 152 178 196 258 293 105 93 81 70 60 52 43 28 22 12 8 8 2 359 352 347 341 336 323 312 307 287 297 294 275 240 258 258
248 227 241 205 142 341 316 305 283 275 310 59 348 296 275 111 110 97 88 73 62 44 35 24 18 15 4 357 358 359 356 352 349 342 338 327 319 308 286 285 267 252 252 259
208 220 90 5 280 285 301 279 323 315 341 7 340 296 259 122 93 85 80 77 64 53 38 28 18 11 357 351 349 349 350 352 347 343 338 328 321 307 291 268 266 260 255 257
242 237 154 182 247 275 270 50 28 5 17 255 61 286 24 133 98 89 88 79 74 59 39 27 6 352 344 344 343 344 346 347 347 346 340 336 331 325 314 305 284 267 262 268
258 127 143 203 258 244 121 56 31 324 309 329 185 262 246 133 115 110 96 87 71 52 40 32 359 339 339 344 349 348 346 344 345 346 344 337 329 322 316 311 302 288 271 263
237 105 64 107 69 56 29 52 310 246 155 286 245 197 299 207 140 118 102 88 70 53 27 4 340 332 343 343 344 345 344 341 339 338 341 339 330 324 319 318 313 306 294 273
289 168 144 122 73 143 92 58 327 346 140 226 309 174 73 89 97 105 105 77 53 40 21 352 338 339 342 341 342 341 340 340 337 337 338 338 332 324 321 317 317 314 305 295
187 270 169 155 180 157 187 162 164 252 187 297 317 333 108 97 93 97 101 92 58 42 4 11 354 343 340 341 338 339 340 339 338 338 337 337 336 327 320 320 310 314 318 306
179 232 94 131 135 127 182 155 115 349 327 23 223 92 109 142 140 138 136 105 59 28 10 357 341 342 341 338 338 339 341 342 341 342 339 337 335 331 322 317 309 308 321 325
90 110 129 60 54 15 61 328 61 354 270 246 280 115 164 169 117 92 71 52 39 16 360 352 345 342 342 341 341 341 345 347 346 343 341 339 337 335 328 321 319 305 314 334
120 106 183 103 177 181 117 208 182 161 170 211 320 62 131 105 104 97 71 56 44 15 7 4 358 351 346 341 341 344 344 347 346 348 346 345 338 341 336 329 325 322 322 326
104 136 191 211 178 196 177 193 167 139 254 236 170 218 90 105 106 95 68 29 24 14 358 356 353 346 342 343 344 346 343 345 350 351 349 350 342 343 344 342 336 335 336 340
167 210 117 335 14 10 201 188 170 124 108 180 131 255 144 124 108 90 55 29 24 0 353 352 349 349 346 346 345 347 342 350 353 353 349 353 351 349 351 351 349 344 343 1
113 161 169 196 149 177 202 207 226 160 144 183 219 252 177 133 128 104 73 44 17 2 356 356 351 348 345 343 343 344 344 355 348 351 353 353 360 354 351 354 355 356 359 2
103 155 330 300 302 292 247 218 216 237 181 179 218 241 135 129 104 89 65 45 20 11 7 360 352 347 342 345 345 343 349 353 346 348 354 360 354 357 1 359 360 3 2 11
54 189 115 273 274 277 263 236 246 247 240 231 218 116 132 104 89 79 70 44 19 11 359 350 346 342 343 346 342 343 350 352 339 346 353 358 358 357 0 359 1 4 5 8
144 142 150 243 249 273 276 223 243 249 252 194 163 144 131 100 95 124 96 43 19 4 354 346 342 340 343 346 342 343 348 341 338 345 350 356 353 356 358 354 356 357 358 354
142 149 127 233 330 236 221 189 218 295 251 129 135 103 104 99 88 96 69 37 11 358 351 347 340 340 342 339 340 341 349 336 339 345 351 352 353 355 356 352 358 357 356 1
190 144 173 160 218 277 28 119 125 136 79 35 108 94 75 56 80 70 38 19 354 344 337 338 338 339 340 338 338 338 345 337 340 347 350 354 359 358 355 2 5 5 2 5
193 144 146 158 205 234 263 100 101 84 348 12 91 78 73 59 69 112 5 356 4 357 346 341 342 343 346 344 337 339 341 336 343 346 349 360 0 359 358 5 6 6 7 7
148 22 181 190 243 289 172 114 111 113 222 83 79 79 71 88 77 340 1 10 0 0 356 340 339 349 349 339 336 345 337 340 341 342 350 1 359 0 360 2 6 6 360 4
156 159 175 145 60 271 141 120 153 144 114 115 101 90 77 47 353 52 21 11 3 357 347 338 338 344 336 331 333 340 335 336 336 345 354 1 359 2 0 2 2 5 1 1
158 172 175 157 210 83 101 108 119 155 141 126 122 108 119 61 51 31 20 10 349 341 332 328 332 330 330 333 337 333 335 335 344 353 0 4 3 1 3 5 6 6 5 360
189 140 121 93 169 110 112 110 112 122 125 125 110 105 115 77 35 10 2 331 323 330 332 332 335 341 343 340 339 335 338 346 354 357 2 3 4 1 5 8 6 7 3 0
189 137 141 119 61 122 134 136 136 125 130 124 115 68 63 73 48 20 340 325 331 335 337 345 347 351 350 347 353 354 349 357 356 358 3 5 359 358 2 4 4 3 2 360
168 165 143 207 183 137 144 142 141 132 134 128 122 107 101 117 47 318 318 327 335 348 350 352 357 358 360 1 3 352 355 358 354 357 2 3 351 358 2 354 354 7 5 3
Wind_Speed_850mb
20 3 11 22 16 7 3 6 13 12 11 11 12 10 11 19 45 47 52 54 50 53 48 53 55 53 48 49 56 62 61 62 64 61 62 61 55 40 33 22 45 89 69 83
7 22 21 11 3 2 9 11 11 11 9 12 15 14 16 5 26 48 51 52 45 45 48 51 56 55 56 60 64 64 64 66 69 67 65 63 62 61 54 50 40 55 80 89
15 15 12 3 7 9 6 8 7 7 12 7 11 12 16 21 55 54 53 46 45 41 40 44 46 50 49 58 68 68 68 65 66 70 72 68 62 55 57 63 69 55 51 65
15 22 14 8 9 9 10 10 12 13 12 5 11 10 5 34 28 35 40 43 37 33 34 41 43 46 53 59 62 68 68 67 65 66 71 72 73 75 66 67 71 78 72 63
10 5 12 7 9 2 3 10 7 6 10 11 7 8 12 32 19 22 31 35 29 30 32 30 29 35 43 53 60 67 74 81 75 67 65 68 71 74 72 67 74 80 89 88
14 8 4 5 10 10 7 5 6 9 5 7 23 19 1 18 32 18 30 30 29 25 21 22 30 41 50 60 59 73 73 73 72 77 72 65 66 70 76 72 73 76 79 93
12 8 10 14 3 6 5 8 6 6 3 12 11 14 12 24 25 28 28 30 20 19 17 24 28 45 56 64 64 80 82 75 70 68 69 70 63 64 67 63 62 63 75 79
13 7 19 12 13 6 12 12 9 7 4 8 16 5 9 23 37 33 28 16 18 15 19 24 32 42 54 64 70 78 79 75 68 64 67 66 62 60 63 63 56 54 51 61
6 14 14 14 8 11 2 5 2 2 8 2 7 9 12 21 19 27 24 17 16 23 30 34 36 42 49 54 68 73 73 70 66 63 63 63 60 59 59 59 56 49 47 51
4 6 6 7 15 8 7 4 8 4 3 7 9 7 10 17 15 20 19 21 24 28 30 28 33 38 42 58 68 68 70 71 70 64 61 60 60 60 58 55 53 51 44 50
9 7 6 12 7 12 3 3 4 3 7 6 3 3 11 17 14 13 18 17 18 21 27 26 30 37 51 61 67 69 70 75 68 64 62 59 57 62 56 55 49 46 40 42
5 8 8 17 16 15 13 11 14 8 9 3 6 7 6 14 20 25 17 17 18 25 32 33 38 48 57 60 59 64 66 75 65 64 64 61 56 57 59 54 47 44 38 37
13 4 5 6 9 2 7 8 8 10 7 8 6 5 8 14 23 22 14 20 25 27 31 37 42 47 49 51 55 55 61 66 64 71 68 65 59 55 63 54 50 45 42 36
15 5 10 14 8 8 7 13 13 14 7 8 11 15 13 8 13 15 15 21 20 23 26 29 34 36 42 49 54 56 66 60 59 68 68 64 62 54 57 59 57 49 42 35
9 6 3 10 14 13 11 14 22 20 16 14 16 20 15 11 14 23 20 15 14 20 26 31 35 40 46 52 49 60 63 55 54 68 67 56 64 62 52 54 54 57 47 41
4 5 5 6 12 19 22 16 12 14 21 16 13 7 12 22 23 21 13 15 21 25 28 33 35 40 47 48 49 58 62 51 55 69 66 56 59 62 63 64 52 53 48 49
12 9 8 7 10 14 15 14 17 11 10 8 8 10 16 13 14 13 16 16 21 24 27 30 34 40 45 44 46 55 59 48 57 71 65 59 57 57 55 56 53 54 51 46
10 11 3 4 6 14 11 12 9 2 10 12 10 16 21 18 25 26 21 14 16 23 25 29 33 40 42 40 47 49 53 45 60 70 63 58 56 54 52 56 48 49 50 48
10 9 2 6 7 11 5 8 7 7 5 10 12 17 27 24 22 28 19 17 22 19 26 28 34 34 37 43 44 49 49 50 63 69 60 56 53 55 53 54 48 49 49 44
19 7 8 2 6 8 5 13 32 16 3 18 31 22 22 15 5 2 17 20 20 18 26 27 26 31 36 38 42 49 46 56 64 67 58 49 52 52 53 51 50 50 53 51
6 0 11 3 5 10 11 19 20 8 10 24 31 26 22 8 3 10 10 16 21 21 18 23 29 32 33 38 43 43 46 55 61 60 51 44 47 47 48 49 48 46 49 55
12 11 6 3 2 10 36 17 8 14 26 22 20 17 14 6 10 9 15 17 20 21 23 28 32 29 32 38 43 41 48 55 59 50 48 43 46 46 47 47 46 45 51 60
0 12 10 11 9 11 31 41 33 21 30 22 16 9 6 8 16 15 13 18 17 21 28 33 34 30 29 35 37 42 49 54 50 48 45 45 48 48 48 51 50 50 52 61
5 11 7 7 3 24 39 33 29 26 25 21 15 11 10 11 11 11 14 14 21 28 31 33 33 32 31 34 36 38 44 48 46 52 45 47 53 54 45 50 49 50 52 56
11 15 11 3 4 30 32 32 27 23 21 18 10 3 6 8 9 11 10 17 25 30 31 32 34 32 32 37 35 37 46 45 49 47 43 47 52 54 49 51 47 46 42 42
15 11 7 8 24 17 29 37 24 22 17 12 12 20 13 5 3 8 14 21 28 28 30 32 31 29 37 38 37 41 42 42 47 43 42 48 50 46 47 53 51 39 37 36
Wind_Direction_850mb
229 177 231 227 204 190 325 309 319 305 292 152 178 196 258 293 105 93 81 70 60 52 43 28 22 12 8 8 2 359 352 347 341 336 323 312 307 287 297 294 275 240 258 258
248 227 241 205 142 341 316 305 283 275 310 59 348 296 275 111 110 97 88 73 62 44 35 24 18 15 4 357 358 359 356 352 349 342 338 327 319 308 286 285 267 252 252 259
208 220 90 5 280 285 301 279 323 315 341 7 340 296 259 122 93 85 80 77 64 53 38 28 18 11 357 351 349 349 350 352 347 343 338 328 321 307 291 268 266 260 255 257
242 237 154 182 247 275 270 50 28 5 17 255 61 286 24 133 98 89 88 79 74 59 39 27 6 352 344 344 343 344 346 347 347 346 340 336 331 325 314 305 284 267 262 268
258 127 143 203 258 244 121 56 31 324 309 329 185 262 246 133 115 110 96 87 71 52 40 32 359 339 339 344 349 348 346 344 345 346 344 337 329 322 316 311 302 288 271 263
237 105 64 107 69 56 29 52 310 246 155 286 245 197 299 207 140 118 102 88 70 53 27 4 340 332 343 343 344 345 344 341 339 338 341 339 330 324 319 318 313 306 294 273
289 168 144 122 73 143 92 58 327 346 140 226 309 174 73 89 97 105 105 77 53 40 21 352 338 339 342 341 342 341 340 340 337 337 338 338 332 324 321 317 317 314 305 295
187 270 169 155 180 157 187 162 164 252 187 297 317 333 108 97 93 97 101 92 58 42 4 11 354 343 340 341 338 339 340 339 338 338 337 337 336 327 320 320 310 314 318 306
179 232 94 131 135 127 182 155 115 349 327 23 223 92 109 142 140 138 136 105 59 28 10 357 341 342 341 338 338 339 341 342 341 342 339 337 335 331 322 317 309 308 321 325
90 110 129 60 54 15 61 328 61 354 270 246 280 115 164 169 117 92 71 52 39 16 360 352 345 342 342 341 341 341 345 347 346 343 341 339 337 335 328 321 319 305 314 334
120 106 183 103 177 181 117 208 182 161 170 211 320 62 131 105 104 97 71 56 44 15 7 4 358 351 346 341 341 344 344 347 346 348 346 345 338 341 336 329 325 322 322 326
104 136 191 211 178 196 177 193 167 139 254 236 170 218 90 105 106 95 68 29 24 14 358 356 353 346 342 343 344 346 343 345 350 351 349 350 342 343 344 342 336 335 336 340
167 210 117 335 14 10 201 188 170 124 108 180 131 255 144 124 108 90 55 29 24 0 353 352 349 349 346 346 345 347 342 350 353 353 349 353 351 349 351 351 349 344 343 1
113 161 169 196 149 177 202 207 226 160 144 183 219 252 177 133 128 104 73 44 17 2 356 356 351 348 345 343 343 344 344 355 348 351 353 353 360 354 351 354 355 356 359 2
103 155 330 300 302 292 247 218 216 237 181 179 218 241 135 129 104 89 65 45 20 11 7 360 352 347 342 345 345 343 349 353 346 348 354 360 354 357 1 359 360 3 2 11
54 189 115 273 274 277 263 236 246 247 240 231 218 116 132 104 89 79 70 44 19 11 359 350 346 342 343 346 342 343 350 352 339 346 353 358 358 357 0 359 1 4 5 8
144 142 150 243 249 273 276 223 243 249 252 194 163 144 131 100 95 124 96 43 19 4 354 346 342 340 343 346 342 343 348 341 338 345 350 356 353 356 358 354 356 357 358 354
142 149 127 233 330 236 221 189 218 295 251 129 135 103 104 99 88 96 69 37 11 358 351 347 340 340 342 339 340 341 349 336 339 345 351 352 353 355 356 352 358 357 356 1
190 144 173 160 218 277 28 119 125 136 79 35 108 94 75 56 80 70 38 19 354 344 337 338 338 339 340 338 338 338 345 337 340 347 350 354 359 358 355 2 5 5 2 5
193 144 146 158 205 234 263 100 101 84 348 12 91 78 73 59 69 112 5 356 4 357 346 341 342 343 346 344 337 339 341 336 343 346 349 360 0 359 358 5 6 6 7 7
148 22 181 190 243 289 172 114 111 113 222 83 79 79 71 88 77 340 1 10 0 0 356 340 339 349 349 339 336 345 337 340 341 342 350 1 359 0 360 2 6 6 360 4
156 159 175 145 60 271 141 120 153 144 114 115 101 90 77 47 353 52 21 11 3 357 347 338 338 344 336 331 333 340 335 336 336 345 354 1 359 2 0 2 2 5 1 1
158 172 175 157 210 83 101 108 119 155 141 126 122 108 119 61 51 31 20 10 349 341 332 328 332 330 330 333 337 333 335 335 344 353 0 4 3 1 3 5 6 6 5 360
189 140 121 93 169 110 112 110 112 122 125 125 110 105 115 77 35 10 2 331 323 330 332 332 335 341 343 340 339 335 338 346 354 357 2 3 4 1 5 8 6 7 3 0
189 137 141 119 61 122 134 136 136 125 130 124 115 68 63 73 48 20 340 325 331 335 337 345 347 351 350 347 353 354 349 357 356 358 3 5 359 358 2 4 4 3 2 360
168 165 143 207 183 137 144 142 141 132 134 128 122 107 101 117 47 318 318 327 335 348 350 352 357 358 360 1 3 352 355 358 354 357 2 3 351 358 2 354 354 7 5 3